Location: Caixon
(43.4106°N, 0.0273°E)
Time: 16:25:03
(UTC+00:00)

Cosmos 1300 Rocket - Pass Details

Date: 16 October 2021
Orbit: 603 x 625 km, 82.5° (Epoch: 28 November)

Event Time Altitude Azimuth Distance (km) Brightness Sun altitude
Rises 04:31:08 0° 347° (NNW) 2,871 6.9 -19.6°
Reaches altitude 10° 04:33:23 10° 343° (NNW) 1,965 6.0 -19.2°
Maximum altitude 04:37:36 54° 266° (W) 744 3.5 -18.4°
Drops below altitude 10° 04:41:51 10° 189° (S) 1,962 6.0 -17.7°
Sets 04:44:05 0° 185° (S) 2,865 6.9 -17.3°
